カタログに戻る

DGS 2-03

運用中科学SSO
NORAD 65262·PAYLOAD·🇨🇳 China
この衛星名は、まだ公式ソースで確認されていません。

打ち上げ Aug 19, 2025 から Jiuquan Satellite Launch Center

Loading…

次のパス (今後24時間)

TLE

最新Source: Space-Track

元期: Sep 14, 2026, 14:01 UTC

1 65262U 25180D   26257.58427956  .00003483  00000-0  18435-3 0  9997
2 65262  97.5376  24.0322 0014239  16.8887 343.2817 15.16026173 59206

AllMySatでDGS 2-03をリアルタイム追跡

Download on the App Store